Date String (YYYY-MM-DD hh:mm:ss) UTC,Instrument flags,Ambient pressure (hPa),Sample flow (lpm),Bypass flow (lpm),Sample temperature (°C),Ambient temperature (°C),ASC tube jacket temperature (°C),LED temperature (°C),Box temperature (°C),Sample RH (%),Span deviation,Mass concentration (μg/m³),Mass concentration (μg/m³),Mass concentration (μg/m³)
DateTimeUTC,F1_M11,P_M11,Q1_M11,Q2_M11,T1_M11,T2_M11,T3_M11,T4_M11,T5_M11,U1_M11,ZSPAN_M11,X0_M11,X2_M11,X1_M11
2022-06-30 22:00:00,,0828.5,5.00,0.00,29.3,27.9,00.0,38.1,31.2,26.2,0000.0,0008.08,0002.49,0001.70
2022-06-30 22:01:00,,0828.4,5.00,0.00,29.3,28.0,00.0,38.1,31.3,26.3,0000.0,0008.31,0002.51,0001.71
2022-06-30 22:02:00,,0828.4,5.00,0.00,29.3,28.1,00.0,38.1,31.3,26.2,0000.0,0008.44,0002.54,0001.71
2022-06-30 22:03:00,,0828.4,5.01,0.00,29.3,28.2,00.0,38.1,31.3,25.9,0000.0,0008.09,0002.53,0001.71
2022-06-30 22:04:00,,0828.3,5.00,0.00,29.4,28.3,00.0,38.1,31.4,25.6,0000.0,0007.98,0002.45,0001.72
2022-06-30 22:05:00,,0828.5,5.00,0.00,29.4,28.4,00.0,38.1,31.4,25.4,0000.0,0007.79,0002.46,0001.72
2022-06-30 22:06:00,,0828.4,5.00,0.00,29.4,28.5,00.0,38.2,31.4,25.2,0000.0,0007.74,0002.47,0001.72
2022-06-30 22:07:00,,0828.3,5.00,0.00,29.5,28.6,00.0,38.2,31.5,25.1,0000.0,0007.95,0002.51,0001.72
2022-06-30 22:08:00,,0828.4,4.99,0.00,29.5,28.4,00.0,38.2,31.5,25.1,0000.0,0008.39,0002.51,0001.71
2022-06-30 22:09:00,,0828.4,5.00,0.00,29.5,27.8,00.0,38.1,31.4,25.4,0000.0,0008.48,0002.59,0001.71
2022-06-30 22:10:00,,0828.4,5.00,0.00,29.5,27.5,00.0,38.1,31.3,25.6,0000.0,0008.61,0002.60,0001.70
2022-06-30 22:11:00,,0828.4,5.00,0.00,29.4,27.5,00.0,38.1,31.3,25.3,0000.0,0007.74,0002.60,0001.70
2022-06-30 22:12:00,,0828.5,5.00,0.00,29.4,27.6,00.0,38.1,31.2,25.4,0000.0,0007.54,0002.60,0001.70
2022-06-30 22:13:00,,0828.5,5.01,0.00,29.4,27.7,00.0,38.1,31.2,24.6,0000.0,0007.50,0002.64,0001.69
2022-06-30 22:14:00,,0828.5,5.01,0.00,29.4,27.8,00.0,38.1,31.3,24.3,0000.0,0007.30,0002.62,0001.69
2022-06-30 22:15:00,,0829.1,5.00,0.00,29.4,27.9,00.0,38.1,31.3,24.3,0000.0,0007.25,0002.62,0001.69
2022-06-30 22:16:00,,0829.2,5.00,0.00,29.4,28.1,00.0,38.1,31.3,23.9,0000.0,0007.15,0002.58,0001.68
2022-06-30 22:17:00,,0829.0,4.99,0.00,29.4,28.2,00.0,38.2,31.4,24.3,0000.0,0006.82,0002.57,0001.68
2022-06-30 22:18:00,,0828.7,4.99,0.00,29.4,28.3,00.0,38.2,31.4,24.4,0000.0,0006.71,0002.55,0001.68
2022-06-30 22:19:00,,0828.5,5.01,0.00,29.5,28.4,00.0,38.2,31.4,24.5,0000.0,0005.75,0002.55,0001.70
2022-06-30 22:20:00,,0828.5,5.00,0.00,29.5,28.5,00.0,38.2,31.4,24.5,0000.0,0005.68,0002.51,0001.69
2022-06-30 22:21:00,,0828.5,5.00,0.00,29.5,28.5,00.0,38.2,31.5,24.6,0000.0,0004.88,0002.52,0001.69
2022-06-30 22:22:00,,0828.5,4.99,0.00,29.5,28.6,00.0,38.2,31.5,24.5,0000.0,0004.75,0002.54,0001.69
2022-06-30 22:23:00,,0828.5,5.00,0.00,29.5,28.0,00.0,38.2,31.4,24.8,0000.0,0004.86,0002.56,0001.69
2022-06-30 22:24:00,,0828.5,5.01,0.00,29.5,27.5,00.0,38.2,31.3,25.5,0000.0,0005.24,0002.59,0001.69
2022-06-30 22:25:00,,0828.6,5.00,0.00,29.5,27.4,00.0,38.2,31.3,26.2,0000.0,0005.51,0002.63,0001.70
2022-06-30 22:26:00,,0828.4,5.00,0.00,29.4,27.5,00.0,38.2,31.2,26.6,0000.0,0005.66,0002.69,0001.71
2022-06-30 22:27:00,,0828.6,5.00,0.00,29.4,27.6,00.0,38.2,31.2,27.4,0000.0,0005.87,0002.72,0001.72
2022-06-30 22:28:00,,0828.9,5.01,0.00,29.4,27.7,00.0,38.2,31.3,27.4,0000.0,0005.74,0002.69,0001.73
2022-06-30 22:29:00,,0829.1,5.00,0.00,29.4,27.9,00.0,38.2,31.3,26.9,0000.0,0005.82,0002.74,0001.75
2022-06-30 22:30:00,,0829.1,5.00,0.00,29.4,28.0,00.0,38.2,31.3,26.6,0000.0,0005.67,0002.73,0001.75
2022-06-30 22:31:00,,0828.8,4.99,0.00,29.4,28.1,00.0,38.2,31.3,27.0,0000.0,0005.56,0002.73,0001.76
2022-06-30 22:32:00,,0829.0,5.00,0.00,29.4,28.2,00.0,38.2,31.4,26.9,0000.0,0005.73,0002.77,0001.77
2022-06-30 22:33:00,,0828.9,5.00,0.00,29.5,28.3,00.0,38.2,31.4,27.0,0000.0,0005.64,0002.73,0001.77
2022-06-30 22:34:00,,0829.1,5.00,0.00,29.5,28.4,00.0,38.2,31.4,26.1,0000.0,0005.71,0002.78,0001.79
2022-06-30 22:35:00,,0828.9,4.99,0.00,29.5,28.5,00.0,38.2,31.5,25.6,0000.0,0006.67,0002.73,0001.80
2022-06-30 22:36:00,,0829.1,5.00,0.00,29.5,28.5,00.0,38.2,31.5,24.4,0000.0,0007.45,0002.71,0001.81
2022-06-30 22:37:00,,0829.1,4.99,0.00,29.5,28.5,00.0,38.3,31.5,23.9,0000.0,0008.27,0002.70,0001.82
2022-06-30 22:38:00,,0829.1,4.99,0.00,29.5,27.9,00.0,38.2,31.4,24.0,0000.0,0008.21,0002.72,0001.81
2022-06-30 22:39:00,,0828.9,5.00,0.00,29.5,27.1,00.0,38.2,31.3,24.0,0000.0,0008.41,0002.86,0001.82
2022-06-30 22:40:00,,0828.9,5.01,0.00,29.4,26.8,00.0,38.1,31.2,23.7,0000.0,0008.47,0002.85,0001.81
2022-06-30 22:41:00,,0829.0,4.99,0.00,29.3,26.8,00.0,38.1,31.1,23.8,0000.0,0008.51,0002.82,0001.79
2022-06-30 22:42:00,,0828.9,5.00,0.00,29.3,27.0,00.0,38.1,31.0,23.8,0000.0,0008.59,0002.84,0001.79
2022-06-30 22:43:00,,0828.9,5.00,0.00,29.2,27.1,00.0,38.1,31.0,23.9,0000.0,0008.59,0002.85,0001.79
2022-06-30 22:44:00,,0829.1,4.99,0.00,29.2,27.3,00.0,38.1,31.1,24.4,0000.0,0008.59,0002.87,0001.79
2022-06-30 22:45:00,,0829.2,4.99,0.00,29.2,27.5,00.0,38.1,31.1,24.4,0000.0,0008.64,0002.85,0001.78
2022-06-30 22:46:00,,0829.0,5.00,0.00,29.2,27.6,00.0,38.1,31.1,24.7,0000.0,0008.12,0002.87,0001.78
2022-06-30 22:47:00,,0828.9,5.01,0.00,29.2,27.8,00.0,38.1,31.2,24.9,0000.0,0007.23,0002.92,0001.77
2022-06-30 22:48:00,,0828.8,5.00,0.00,29.3,27.9,00.0,38.1,31.2,24.8,0000.0,0006.39,0002.93,0001.77
2022-06-30 22:49:00,,0828.7,4.99,0.00,29.3,28.0,00.0,38.1,31.2,24.5,0000.0,0007.20,0002.92,0001.78
2022-06-30 22:50:00,,0829.0,5.01,0.00,29.3,28.1,00.0,38.1,31.3,24.4,0000.0,0006.81,0002.79,0001.78
2022-06-30 22:51:00,,0828.9,5.00,0.00,29.3,28.2,00.0,38.1,31.3,24.7,0000.0,0006.55,0002.76,0001.80
2022-06-30 22:52:00,,0829.0,5.00,0.00,29.3,28.3,00.0,38.1,31.3,22.6,0000.0,0006.42,0002.77,0001.81
2022-06-30 22:53:00,,0828.9,5.00,0.00,29.4,28.3,00.0,38.1,31.4,20.9,0000.0,0006.34,0002.77,0001.83
2022-06-30 22:54:00,,0828.9,5.00,0.00,29.4,28.4,00.0,38.1,31.4,21.9,0000.0,0006.27,0002.73,0001.83
2022-06-30 22:55:00,,0829.0,5.00,0.00,29.4,28.5,00.0,38.2,31.4,22.5,0000.0,0006.19,0002.67,0001.84
2022-06-30 22:56:00,,0829.2,5.01,0.00,29.5,28.5,00.0,38.2,31.4,21.8,0000.0,0005.83,0002.60,0001.84
2022-06-30 22:57:00,,0829.1,5.00,0.00,29.5,28.6,00.0,38.2,31.5,21.9,0000.0,0005.97,0002.59,0001.83
2022-06-30 22:58:00,,0829.0,5.01,0.00,29.5,28.6,00.0,38.2,31.5,22.2,0000.0,0006.13,0002.58,0001.83
2022-06-30 22:59:00,,0828.9,5.00,0.00,29.5,28.6,00.0,38.2,31.5,22.9,0000.0,0006.45,0002.59,0001.83
